Location: *
(45.4590°N, 16.3650°E)
Time: 00:04:59
(UTC+00:00)

CZ-4 R/B - Pass Details

Date: 17 January 2020
Orbit: 581 x 589 km, 97.8° (Epoch: 23 February)

Event Time Altitude Azimuth Distance (km) Brightness Sun altitude
Rises 17:05:31 0° 165° (SSE) 2,798 7.9 -14.8°
Reaches altitude 10° 17:07:40 10° 165° (SSE) 1,902 7.1 -15.2°
Maximum altitude 17:11:48 89° 74° (ENE) 591 4.4 -15.9°
Drops below altitude 10° 17:15:57 10° 347° (NNW) 1,913 7.1 -16.6°
Sets 17:18:07 0° 348° (NNW) 2,816 7.9 -16.9°
